C/2017 W2 ( Leonard )

Japanese version
Home page
Updated on June 25, 2018

---------------------------------------------------------------------

* Profile

Discovery Date November 26, 2017
Magnitude 20.2 mag
Discoverer G. J. Leonard (Mount Lemmon)

* Pictures

* Orbital Elements

Epoch 2017 Oct. 14.0 TT = JDT 2458040.5
T 2017 Nov. 1.91041 TT                                  MPCW
q   3.9573515            (2000.0)            P               Q
n   0.01941893     Peri.  169.15320     -0.68705840     -0.02538480
a  13.7083701      Node   312.80929     +0.57027272     +0.60047032
e   0.7113186      Incl.   98.17842     +0.45026634     -0.79924402
P  50.76
From 157 observations 2017 Nov. 26-2018 May 12, mean residual 0".4.

* Magnitudes Graph

        m1 = 10.5 + 5 log d + 10.0 log r

---------------------------------------------------------------------

The orbital elements are published on M.P.E.C. 2018-K95.
The magnitudes graphs are made with Comet for Windows.

---------------------------------------------------------------------

Copyright(C) Seiichi Yoshida (comet@aerith.net). All rights reserved.